ituDewa

Jackpot

Texas Poker Multi Jackpot System

Kini Telah hadir Jackpot SUPER ROYAL FLUSH

Kini Telah hadir Jackpot 2000 (khusus table VIP keatas).

Ikutilah global jackpot yang tersedia di system kami, dengan system jackpot terbaru dan pertama di indonesia, anda dapat membeli jackpot dengan harga 100 rupiah saja dan menangkan hadiahnya hingga puluhan juta rupiah.

Jackpot bukanlah suatu keharusan untuk dibeli, namun kami memberikan suatu fitur tambahan untuk member tercinta dari www.qdewi.info.

Terdapat tiga pilihan harga jackpot yang bisa anda beli yaitu :100,500,1000 dan 2000(khusus table VIP Keatas) rupiah.

Hadiah dari Multi jackpot system www.qdewi.info

  1. full house x 10 harga jackpot yang anda beli.
      (contoh:anda membeli 1000 maka:1000 X10 = 10.000)
  2. four of kind x 250 harga jackpot yang anda beli
      (contoh:anda membeli 1000 maka:1000 X250 = 250.000)
  3. Straight flush x 1200
      (contoh:anda membeli 1000 maka:1000 X1200 = 1.200.000)
  4. Royal flush x 10000 harga jackpot yang anda beli
      (contoh:anda membeli 1000 maka:1000 X10000 = 10.000.000)
  5. SUPER ROYAL FLUSH x 30000 harga jackpot yang anda beli
      (contoh:anda membeli 1000 maka:1000 X30000 = 30.000.000)

Kondisi kartu

  1. full house adalah kondisi kartu dimana kartu anda dan kartu tengah dengan total 7 kartu bisa mendapatkan nilai 5 kartu dengan kombinasi 1 tris(three of kind) dan 1 pair, contoh 3 kartu 10 dan 2 kartu 5
  2. Four of kind adalah kondisi kartu dimana kartu anda dan kartu tengah dengan total 7 kartu bisa mendapatkan nilai 5 kartu dengan kombinasi 4 kartu yang sama jumlah dan 1 kartu apapun juga contoh anda mendapatkan 4 buah kartu angka 3 dan 1 kartu apapun.
  3. Staright flush adalah kondisi kartu dimana kartu anda dan kartu tengah dengan total 7 kartu bisa mendapatkan nilai 5 kartu dengan kombinasi seri / staright dengan kembang yang sama contoh : urutan kartu dari angka 5, 6, 7, 8 , 9 10 dengan kembang yg sama misalnya as hati
  4. Royal flush adalah kondisi kartu dimana kartu anda dan kartu tengah dengan total 7 kartu bisa mendapatkan nilai 5 kartu dengan kombinasi seri / staright dengan kembang yang sama tetapi kartu tersebut haruslah dimulai dari 10. contoh 10, Queen, Jack, King dan aces dengan kembang yang sama
  5. Super Royal flush adalah kondisi kartu dimana Kedua kartu anda digabung dengan 3 kartu pertama meja haruslah royal flush. contoh kartu anda 10,Queen kembang sama dan 3 kartu pertama meja adalah Jack, King dan aces dengan kembang yang sama

Demikian adalah penjelasan dari Multi Jackpot www.qdewi.info terima kasih dan selamat bermain salam hoki dari kami

Texas Poker Jackpot Winner

TOP SUPER ROYAL FLUSH
No.TanggalNamaPriceWin
121/05 19:50MASGHENSuper Royal flush3,000,000
221/05 18:30ALVINO50Super Royal flush3,000,000
321/05 16:57ALLIN_B0SSSuper Royal flush6,000,000
421/05 15:53AQHNUGABSPSuper Royal flush3,000,000
521/05 03:49EDAY777Super Royal flush3,000,000
TOP ROYAL FLUSH
No.TanggalNamaPriceWin
121/05 21:42VN212Royal flush10,000,000
221/05 21:38BIN123456Royal flush500,000
321/05 20:46D0N1C5Royal flush10,000,000
421/05 20:41XT78Royal flush5,000,000
521/05 20:41MOVIC_1Royal flush1,000,000
TOP STRAIGHT FLUSH
No.TanggalNamaPriceWin
121/05 21:43SONY_X7Straight Flush240,000
221/05 21:41TUNAS06Straight Flush120,000
321/05 21:40WI17NTSUIWStraight Flush120,000
421/05 21:39CUYIIStraight Flush600,000
521/05 21:39BAMBUPETUXStraight Flush600,000
LATEST JACKPOT
No.TanggalNamaPriceWin
121/05 21:43SUCIGAULFull House10,000
221/05 21:43MESTORA9Full House5,000
321/05 21:43TELOR108Full House2,000
421/05 21:43BUNAKIM25Full House2,000
521/05 21:43DONIYUDAFull House2,000
621/05 21:43DEDI110878Full House20,000
721/05 21:43T4DKEHED86Full House2,000
821/05 21:43JHOELYSAFour Of A Kind50,000
921/05 21:43GJGZWJJLYYFull House10,000
1021/05 21:43B18129CQV2VGFXMFour Of A Kind125,000
1121/05 21:43MENARO99Full House2,000
1221/05 21:43WINNER009Full House2,000
1321/05 21:43MAUSTRFull House1,000
1421/05 21:43MINYENK31Full House10,000
1521/05 21:43TRIMJPFull House2,000
1621/05 21:43ALODIAFull House10,000
1721/05 21:43THESARUPITFull House2,000
1821/05 21:43SONY_X7Straight Flush240,000
1921/05 21:43SCHN3IDERFull House5,000
2021/05 21:43RISKRASKFull House2,000
2121/05 21:43VINHTIENFull House500
2221/05 21:43GILLINGGAMFull House5,000
2321/05 21:43DWTSAD114Full House2,000
2421/05 21:43AB33LOFull House2,000
2521/05 21:43OJ0NGLAPANFull House5,000
2621/05 21:43S44NJAYFour Of A Kind125,000
2721/05 21:43ANEONS08Full House1,000
2821/05 21:43WEJE18Full House1,000
2921/05 21:43THECHOICE1Full House2,000
3021/05 21:43ANDROW11Full House2,000
3121/05 21:43JGNUCUT08Full House5,000
3221/05 21:43AMINB43Full House2,000
3321/05 21:43BOOM4SFull House5,000
3421/05 21:43KUBUKAUFull House2,000
3521/05 21:43PLAPON79Full House5,000
3621/05 21:43MAMAMUDA81Full House2,000
3721/05 21:43R1NA123Full House2,000
3821/05 21:43VOLKS2489Full House5,000
3921/05 21:43GA8I81U943Full House2,000
4021/05 21:43BENAWAFull House1,000
4121/05 21:43LANJAR800Full House1,000
4221/05 21:43BR0S0T11Full House1,000
4321/05 21:43TEMPIX66Full House1,000
4421/05 21:43UOB19Four Of A Kind500,000
4521/05 21:43NR_DFull House10,000
4621/05 21:43F43996B6Full House1,000
4721/05 21:43KAMEHAMERUFull House10,000
4821/05 21:43YAKH2S5D64Full House5,000
4921/05 21:4314NP4P1Full House2,000
5021/05 21:43AURORA03Full House10,000

Domino Multi Jackpot System

Ikutilah global jackpot yang tersedia di system kami, dengan system jackpot terbaru dan pertama di indonesia, anda dapat membeli jackpot dengan harga 100 rupiah saja dan menangkan hadiahnya hingga puluhan juta rupiah.

Jackpot bukanlah suatu keharusan untuk dibeli, namun kami memberikan suatu fitur tambahan untuk member tercinta dari www.qdewi.info.

Terdapat tiga pilihan harga jackpot yang bisa anda beli yaitu :100,500 dan 1000 rupiah.

Hadiah dari Multi jackpot system www.qdewi.info

  1. Murni Kecil x 50 harga jackpot yang anda beli.
      (contoh:anda membeli 1000 maka:1000 X 50 = 50.000)
  2. Murni Besar x 50 harga jackpot yang anda beli
      (contoh:anda membeli 1000 maka:1000 X 50 = 50.000)
  3. BALAK x 100 harga jackpot yang anda beli
      (contoh:anda membeli 1000 maka:1000 X 100 = 100.000)
  4. ENAM DEWA x 6666 harga jackpot yang anda beli
      (contoh:anda membeli 1000 maka:1000 X 6666 = 6.666.000)

Demikian adalah penjelasan dari Multi Jackpot www.qdewi.info terima kasih dan selamat bermain salam hoki dari kami

Domino Jackpot Winner

TOP ENAM DEWA
No.TanggalNamaPriceWin
121/05 19:21KOMISI7murni enam6,666,000
221/05 18:31BIGBRO98murni enam6,666,000
321/05 15:13RHINATEAmurni enam3,333,000
421/05 13:54CEU_ADAH2murni enam666,600
521/05 11:26ROBOT565murni enam666,600
TOP BALAK
No.TanggalNamaPriceWin
121/05 21:42AA12A03Bbalak10,000
221/05 21:41S3DOT1balak100,000
321/05 21:41RUDIHARTANbalak50,000
421/05 21:39SAZ123balak50,000
521/05 21:35GOTFATHERbalak100,000
LATEST JACKPOT
No.TanggalNamaPriceWin
121/05 21:43JOE_MICHELlucky9910,000
221/05 21:43GONZALES22lucky9950,000
321/05 21:42AA12A03Bbalak10,000
421/05 21:42RY9Y4Y0MT4murni kecil50,000
521/05 21:41S3DOT1balak100,000
621/05 21:41B3CAKT3BOKmurni kecil50,000
721/05 21:41KTC6666murni kecil50,000
821/05 21:41RUDIHARTANbalak50,000
921/05 21:41ARMIN888ARmurni besar5,000
1021/05 21:40PUTRII123murni kecil50,000
1121/05 21:40ZOL889murni besar5,000
1221/05 21:40MORLYKU9lucky9910,000
1321/05 21:39SAZ123balak50,000
1421/05 21:39ZZU4E9I8VKmurni kecil25,000
1521/05 21:38HOQUENmurni kecil5,000
1621/05 21:38BECUMZmurni besar50,000
1721/05 21:38ARMIN888ARmurni kecil5,000
1821/05 21:38TOPELEVENmurni kecil50,000
1921/05 21:37SINGGAPAImurni besar5,000
2021/05 21:36A9CA7EF1murni kecil50,000
2121/05 21:36GKXFEQMJL7murni kecil50,000
2221/05 21:36D5E0E83Amurni kecil50,000
2321/05 21:35W1NES88murni besar50,000
2421/05 21:35KRIZCAFEmurni kecil5,000
2521/05 21:35GOTFATHERbalak100,000
2621/05 21:35T4RG3T800lucky9925,000
2721/05 21:35DOURATOmurni kecil25,000
2821/05 21:34C8AA72BAmurni kecil25,000
2921/05 21:34MANE444murni kecil25,000
3021/05 21:34DHERIAmurni besar50,000
3121/05 21:34WAKYENGG1murni besar5,000
3221/05 21:33ME4CI99lucky9910,000
3321/05 21:33POANFUNmurni kecil50,000
3421/05 21:33MIOMERAH11lucky9910,000
3521/05 21:32NOVRI0609murni besar25,000
3621/05 21:32RZHmurni besar25,000
3721/05 21:32DWBTNDEN10murni kecil50,000
3821/05 21:32CCA913C1murni kecil5,000
3921/05 21:32KALEMJAEmurni kecil50,000
4021/05 21:32KARLAQ123murni besar25,000
4121/05 21:32N63N-TOTmurni besar25,000
4221/05 21:31JAROT9898murni besar5,000
4321/05 21:31AHMASA808murni kecil25,000
4421/05 21:31DANISIMOmurni besar25,000
4521/05 21:31UWA321murni besar50,000
4621/05 21:30HESINGBLlucky9950,000
4721/05 21:30DODI891murni kecil50,000
4821/05 21:30FIVESTARmurni kecil25,000
4921/05 21:30RETET17murni kecil50,000
5021/05 21:29COKKEAMINmurni kecil50,000

Ceme Multi Jackpot System

Jackpot dilihat dari gabungan kartu pemain dengan kartu bandar. Bandar harus membeli jackpot sebanyak jumlah player yang sedang duduk. Sebagai contoh bila terdapat 3 pemain duduk bermain, dan bandar memutuskan untuk membeli jackpot Rp 1.000, maka pada periode tersebut bandar akan membeli jackpot sebanyak 3xRp1.000 = Rp3.000.

Jackpot bukanlah suatu keharusan untuk dibeli, namun kami memberikan suatu fitur tambahan untuk member tercinta dari www.qdewi.info.

Terdapat tiga pilihan harga jackpot yang bisa anda beli yaitu :100,500 dan 1000 rupiah.

Hadiah dari Multi jackpot system www.qdewi.info

  1. Murni Kecil x 50 harga jackpot yang anda beli.
      (contoh:anda membeli 1000 maka:1000 X 50 = 50.000)
  2. Murni Besar x 50 harga jackpot yang anda beli
      (contoh:anda membeli 1000 maka:1000 X 50 = 50.000)
  3. BALAK x 200 harga jackpot yang anda beli
      (contoh:anda membeli 1000 maka:1000 X 200 = 200.000)
  4. ENAM DEWA x 6666 harga jackpot yang anda beli
      (contoh:anda membeli 1000 maka:1000 X 6666 = 6.666.000)

Demikian adalah penjelasan dari Multi Jackpot www.qdewi.info terima kasih dan selamat bermain salam hoki dari kami

Ceme Jackpot Winner

TOP ENAM DEWA
No.TanggalNamaPriceWin
121/05 21:42WONKTEGALmurni enam6,666,000
221/05 21:20SINTA74murni enam6,666,000
321/05 21:20DWBTVIVO49murni enam3,333,000
421/05 21:17ATABUKmurni enam3,333,000
521/05 21:04MURAY9999murni enam3,333,000
TOP BALAK
No.TanggalNamaPriceWin
121/05 21:43ITS11balak100,000
221/05 21:42ARIP921balak20,000
321/05 21:42KH2060balak20,000
421/05 21:42BOUNDLESbalak200,000
521/05 21:42PG810balak20,000
LATEST JACKPOT
No.TanggalNamaPriceWin
121/05 21:43VIBRITAVOmurni kecil50,000
221/05 21:43ANDRA212murni kecil50,000
321/05 21:43ITS11balak100,000
421/05 21:43OSKARmurni kecil25,000
521/05 21:43IRFIANTYmurni kecil50,000
621/05 21:43BOOOYAH11murni besar50,000
721/05 21:43ARIS5808murni kecil5,000
821/05 21:43H0KI991murni kecil50,000
921/05 21:43PODOIJIKmurni besar50,000
1021/05 21:43THOR077murni besar25,000
1121/05 21:43WDTRSBOOSmurni kecil25,000
1221/05 21:43H312UGmurni kecil50,000
1321/05 21:43RUJITHmurni kecil25,000
1421/05 21:43SIMONE55murni besar50,000
1521/05 21:43MONSTER58murni besar25,000
1621/05 21:42BOUNDLESmurni besar50,000
1721/05 21:42JARNOAE99murni besar25,000
1821/05 21:42BISABOS6murni besar50,000
1921/05 21:42BISABOS6murni besar50,000
2021/05 21:42WONKTEGALmurni enam6,666,000
2121/05 21:42EWEEMBE3murni besar25,000
2221/05 21:42BALMOND47murni besar5,000
2321/05 21:42KIEBAE23murni kecil5,000
2421/05 21:42ARIP921balak20,000
2521/05 21:42KOKOKAKALmurni kecil50,000
2621/05 21:42ROBETSKImurni kecil5,000
2721/05 21:42ATABUKmurni kecil25,000
2821/05 21:42SEDDOTT9murni kecil50,000
2921/05 21:42KH2060balak20,000
3021/05 21:42KOESNADI87murni besar25,000
3121/05 21:42BOUNDLESbalak200,000
3221/05 21:42AREPSUGIHAmurni kecil50,000
3321/05 21:42ACANITEMmurni kecil25,000
3421/05 21:42PG810balak20,000
3521/05 21:42ALEX77777murni kecil50,000
3621/05 21:42TAMTAM19balak200,000
3721/05 21:42DWBTMANT94murni kecil50,000
3821/05 21:42ACIN168murni besar50,000
3921/05 21:42AMBON60balak20,000
4021/05 21:41BDL5murni kecil50,000
4121/05 21:41PURPIEQIUmurni kecil50,000
4221/05 21:41QZRUUHmurni besar50,000
4321/05 21:41EHEL_37murni besar50,000
4421/05 21:41JAMB0balak20,000
4521/05 21:41SIMONE55murni kecil25,000
4621/05 21:41MONSTER58murni kecil25,000
4721/05 21:41ARTUSS88murni besar5,000
4821/05 21:41C4BC9616murni besar5,000
4921/05 21:41D15C09murni besar50,000
5021/05 21:41JEBENG099murni besar50,000